Location: Arboyeti
(42.1122°N, 44.6017°E)
Time: 05:51:32
(UTC+00:00)

CENTAUR R/B - Pass Details

Date: 19 April 2021
Orbit: 742 x 1446 km, 63.4° (Epoch: 18 April)

Event Time Altitude Azimuth Distance (km) Brightness Sun altitude
Rises 16:07:58 0° 321° (NW) 4,237 7.0 -4.5°
Reaches altitude 10° 16:10:42 10° 318° (NW) 3,345 6.5 -4.9°
Maximum altitude 16:18:50 58° 242° (WSW) 1,615 3.9 -6.3°
Drops below altitude 10° 16:27:29 10° 167° (SSE) 3,551 5.1 -7.8°
Sets 16:30:30 0° 163° (SSE) 4,512 5.6 -8.3°
